K2MIT Weather Reports


Display with metric or nautical units.
time (UTC)temp
F
wind
direction
speed
MPH
gust
MPH
rain 1hr
in
rain 24hr
in
rain mn
in
humidity
%
barometer
mb
20260831230041 72 164 1.0 3.0 0.00 0.04 0.00 76 1018.4
20260831224539 73 133 1.0 5.0 0.00 0.04 0.00 75 1018.4
20260831223041 73 0 0.0 3.0 0.00 0.04 0.00 76 1018.3
20260831221546 73 99 0.0 4.0 0.00 0.04 0.00 76 1018.5
20260831220041 73 146 0.0 4.0 0.00 0.04 0.00 75 1018.7
20260831214540 73 113 1.0 3.0 0.00 0.04 0.00 76 1018.8
20260831213038 73 142 1.0 3.0 0.00 0.04 0.00 78 1018.8
20260831211540 72 178 1.0 2.0 0.00 0.04 0.00 78 1018.8
20260831210038 73 255 0.0 3.0 0.00 0.04 0.00 76 1019.1
20260831204540 73 0 1.0 4.0 0.00 0.04 0.00 73 1018.5
20260831203059 75 219 1.0 3.0 0.00 0.04 0.00 71 1018.4
20260831201535 76 142 0.0 2.0 0.00 0.04 0.00 68 1018.4
20260831200117 76 113 1.0 3.0 0.00 0.04 0.00 67 1018.7
20260831194551 77 103 0.0 2.0 0.00 0.04 0.00 64 1018.9
20260831193035 79 149 1.0 4.0 0.00 0.04 0.00 61 1019.1
20260831191540 77 181 1.0 3.0 0.00 0.04 0.00 63 1019.3
20260831190043 77 186 2.0 4.0 0.00 0.04 0.00 62 1019.7
20260831184540 77 63 1.0 4.0 0.00 0.04 0.00 62 1019.8
20260831183042 77 89 2.0 6.0 0.00 0.04 0.00 63 1019.7
20260831181549 78 164 1.0 4.0 0.00 0.04 0.00 61 1019.5
20260831180040 79 124 1.0 6.0 0.00 0.04 0.00 59 1019.8
20260831174549 79 68 1.0 5.0 0.00 0.04 0.00 58 1020.1
20260831173040 78 90 2.0 4.0 0.00 0.04 0.00 62 1019.9
20260831171540 76 88 3.0 8.0 0.00 0.04 0.00 62 1019.9
20260831170042 79 16 1.0 10.0 0.00 0.04 0.00 59 1020.1
20260831164538 78 109 2.0 9.0 0.00 0.04 0.00 60 1020.3
20260831163041 77 42 2.0 8.0 0.00 0.04 0.00 62 1020.5
20260831161542 77 117 2.0 9.0 0.00 0.04 0.00 61 1020.4
20260831160040 77 75 2.0 10.0 0.00 0.04 0.00 61 1020.5
20260831154611 77 46 2.0 8.0 0.00 0.04 0.00 60 1020.6
20260831153041 77 101 4.0 9.0 0.00 0.04 0.00 62 1020.5
20260831151544 76 81 1.0 7.0 0.00 0.04 0.00 64 1020.3
20260831150038 75 135 2.0 7.0 0.00 0.04 0.00 68 1020.5
20260831144536 73 149 1.0 5.0 0.00 0.04 0.00 70 1020.8
20260831143042 73 85 2.0 3.0 0.00 0.04 0.00 71 1020.8
20260831141541 72 170 1.0 5.0 0.00 0.04 0.00 73 1020.8
20260831140040 72 0 1.0 3.0 0.00 0.04 0.00 74 1020.6
20260831134545 72 121 1.0 4.0 0.00 0.04 0.00 73 1020.5
20260831133041 72 60 1.0 3.0 0.00 0.04 0.00 73 1020.5
20260831131541 72 113 0.0 3.0 0.00 0.04 0.00 75 1020.3
20260831130042 71 0 1.0 5.0 0.00 0.04 0.00 78 1020.2
20260831124535 69 59 1.0 2.0 0.00 0.04 0.00 82 1020.4
20260831123037 68 0 0.0 1.0 0.00 0.04 0.00 83 1020.5
20260831121546 68 0 1.0 3.0 0.00 0.04 0.00 83 1020.4
20260831120038 68 0 0.0 2.0 0.00 0.04 0.00 83 1020.3
20260831114541 68 65 0.0 5.0 0.00 0.04 0.00 83 1020.3
20260831113047 67 71 0.0 4.0 0.00 0.04 0.00 83 1019.9
20260831111824 67 0 0.0 2.0 0.00 0.04 0.00 84 1020.1
20260831110038 67 102 0.0 2.0 0.00 0.04 0.00 84 1019.9
20260831104539 67 263 0.0 3.0 0.00 0.04 0.00 83 1019.7
20260831103042 67 302 0.0 4.0 0.00 0.04 0.00 85 1019.5
20260831101542 67 0 0.0 3.0 0.00 0.04 0.00 86 1019.1
20260831100038 67 298 1.0 3.0 0.00 0.04 0.00 87 1019.0
20260831094542 67 0 0.0 3.0 0.00 0.04 0.00 88 1019.3
20260831093039 67 0 0.0 4.0 0.00 0.04 0.00 88 1019.5
20260831091541 67 9 0.0 2.0 0.00 0.04 0.00 87 1019.0
20260831090044 68 0 0.0 1.0 0.00 0.04 0.00 87 1018.9
20260831084552 68 0 0.0 0.0 0.00 0.04 0.00 88 1019.0
20260831083043 68 0 0.0 2.0 0.00 0.04 0.00 88 1019.1
20260831081541 68 21 0.0 1.0 0.00 0.04 0.00 88 1019.1
20260831080040 68 0 0.0 0.0 0.00 0.04 0.00 88 1018.8
20260831074539 68 0 0.0 2.0 0.00 0.04 0.00 88 1018.9
20260831073041 68 288 1.0 2.0 0.00 0.04 0.00 88 1018.9
20260831071540 68 300 0.0 4.0 0.00 0.04 0.00 87 1019.0
20260831070053 68 341 1.0 3.0 0.00 0.04 0.00 87 1018.9
20260831064541 69 0 0.0 2.0 0.00 0.04 0.00 87 1019.0
20260831063042 68 330 1.0 3.0 0.00 0.04 0.00 87 1018.6
20260831061538 68 346 0.0 3.0 0.00 0.04 0.00 87 1019.0
20260831060041 69 0 0.0 4.0 0.00 0.04 0.00 87 1018.8
20260831054544 69 285 1.0 5.0 0.00 0.04 0.00 86 1018.6
20260831053053 69 321 2.0 8.0 0.00 0.04 0.00 86 1018.4
20260831051543 69 294 2.0 4.0 0.00 0.04 0.00 86 1018.5
20260831050045 69 254 2.0 4.0 0.00 0.04 0.00 87 1018.8
20260831044541 69 304 2.0 5.0 0.00 0.04 0.00 88 1018.7
20260831043042 69 281 2.0 4.0 0.00 0.04 0.00 88 1018.7
20260831041541 70 319 1.0 3.0 0.00 0.04 0.00 88 1018.5
20260831040043 70 332 1.0 3.0 0.00 0.04 0.00 89 1018.5
20260831034541 70 275 1.0 2.0 0.00 0.04 0.04 89 1018.5
20260831033058 71 0 0.0 3.0 0.00 0.04 0.04 89 1018.6
20260831031540 71 352 1.0 4.0 0.00 0.04 0.04 89 1018.7
20260831030039 72 315 1.0 2.0 0.00 0.04 0.04 89 1018.9
20260831024538 71 261 0.0 2.0 0.01 0.04 0.04 89 1018.9
20260831023040 71 242 1.0 2.0 0.01 0.04 0.04 89 1018.9
20260831021540 72 292 0.0 2.0 0.03 0.04 0.04 88 1018.9
20260831020048 72 0 0.0 0.0 0.04 0.04 0.04 88 1019.1
20260831014538 72 0 0.0 4.0 0.03 0.03 0.03 86 1019.1
20260831013042 73 304 1.0 4.0 0.03 0.03 0.03 87 1018.8
20260831011544 73 0 0.0 0.0 0.01 0.01 0.01 87 1018.7
20260831010036 73 0 0.0 2.0 0.00 0.00 0.00 85 1018.6
20260831004539 74 314 1.0 2.0 0.00 0.00 0.00 85 1018.8
20260831003041 75 0 0.0 2.0 0.00 0.00 0.00 82 1018.6
20260831001540 76 298 0.0 2.0 0.00 0.00 0.00 79 1018.3
20260831000044 77 252 1.0 4.0 0.00 0.00 0.00 76 1018.0
20260830234540 77 273 0.0 3.0 0.00 0.00 0.00 75 1017.8
20260830233044 77 313 2.0 6.0 0.00 0.00 0.00 74 1017.6
20260830231542 77 0 1.0 7.0 0.00 0.00 0.00 74 1017.6